CW9790 Weather Reports


time (UTC)temp
C
wind
direction
speed
KPH
gust
KPH
rain 1hr
cm
rain 24hr
cm
rain mn
cm
humidity
%
barometer
mb
20260506145017 22 203 4.8 20.9 0.03 0.10 0.10 94 1009.5
20260506144017 22 158 1.6 6.4 0.05 0.10 0.10 94 1008.9
20260506143016 22 0.0 3.2 0.05 0.10 0.10 95 1008.8
20260506142017 22 0.0 1.6 0.08 0.10 0.10 94 1008.7
20260506141017 22 0.0 3.2 0.08 0.10 0.10 94 1008.7
20260506140017 22 0.0 0.0 0.05 0.08 0.08 94 1008.7
20260506135017 22 0.0 4.8 0.05 0.08 0.08 94 1008.8
20260506134038 22 0.0 1.6 0.03 0.05 0.05 94 1008.6
20260506133017 22 113 1.6 8.0 0.03 0.05 0.05 94 1008.0
20260506132037 22 135 1.6 6.4 0.03 0.03 0.03 94 1007.4
20260506131017 22 135 1.6 8.0 0.03 0.03 0.03 94 1007.3
20260506130017 22 0.0 6.4 0.03 0.03 0.03 94 1007.3
20260506125037 22 135 1.6 6.4 0.03 0.03 0.03 94 1007.3
20260506124017 22 0.0 3.2 0.03 0.03 0.03 94 1007.4
20260506123017 22 135 1.6 4.8 0.03 0.03 0.03 94 1007.2
20260506122016 22 135 1.6 4.8 0.00 0.00 0.00 94 1007.0
20260506121017 22 158 1.6 6.4 0.00 0.00 0.00 94 1007.2
20260506120017 22 158 1.6 8.0 0.00 0.00 0.00 94 1007.1
20260506115017 22 135 1.6 6.4 0.00 0.00 0.00 94 1007.1
20260506114016 22 113 1.6 6.4 0.00 0.00 0.00 94 1007.2
20260506113037 22 0.0 4.8 0.00 0.00 0.00 94 1007.2
20260506112016 22 158 1.6 9.7 0.00 0.00 0.00 94 1007.4
20260506111016 22 158 1.6 11.3 0.00 0.00 0.00 94 1007.4
20260506110036 22 158 1.6 9.7 0.00 0.00 0.00 94 1007.5
20260506105017 22 203 1.6 4.8 0.00 0.00 0.00 94 1007.6
20260506104016 22 135 1.6 8.0 0.00 0.00 0.00 94 1007.5
20260506103017 22 135 1.6 4.8 0.00 0.00 0.00 94 1007.6
20260506102016 22 135 3.2 11.3 0.00 0.00 0.00 94 1007.4
20260506101016 22 135 3.2 11.3 0.00 0.00 0.00 93 1007.2
20260506100016 22 180 3.2 11.3 0.00 0.00 0.00 93 1007.2
20260506095037 22 135 3.2 8.0 0.00 0.00 0.00 93 1007.5
20260506094017 22 135 3.2 11.3 0.00 0.00 0.00 93 1007.5
20260506093016 22 135 3.2 8.0 0.00 0.00 0.00 93 1007.4
20260506092016 22 135 1.6 11.3 0.00 0.00 0.00 93 1007.4
20260506091016 22 158 1.6 8.0 0.00 0.00 0.00 93 1007.5
20260506090016 22 135 3.2 11.3 0.00 0.00 0.00 93 1007.2
20260506085016 22 135 3.2 9.7 0.00 0.00 0.00 93 1007.1
20260506084036 22 135 3.2 11.3 0.00 0.00 0.00 92 1007.0
20260506083016 22 135 4.8 12.9 0.00 0.00 0.00 92 1006.9
20260506082016 22 135 3.2 12.9 0.00 0.00 0.00 92 1006.8
20260506081016 22 135 4.8 14.5 0.00 0.00 0.00 92 1006.8
20260506073016 23 135 6.4 17.7 0.00 0.00 0.00 92 1007.1
20260506072016 23 135 3.2 9.7 0.00 0.00 0.00 92 1006.9
20260506071018 23 135 3.2 12.9 0.00 0.00 0.00 92 1007.0
20260506062019 23 135 3.2 14.5 0.00 0.00 0.00 91 1007.3
20260506061018 23 135 3.2 14.5 0.00 0.00 0.00 91 1007.3
20260506051017 22 135 1.6 6.4 0.00 0.00 0.00 89 1006.9
20260506045017 22 0.0 3.2 0.00 0.00 0.00 89 1006.7
20260506044037 22 0.0 3.2 0.00 0.00 0.00 89 1006.6
20260506043016 22 0.0 3.2 0.00 0.00 0.00 89 1006.7
20260506042017 22 0.0 1.6 0.00 0.00 0.00 88 1006.4
20260506041018 22 0.0 1.6 0.00 0.00 0.00 88 1006.5
20260506040017 22 0.0 3.2 0.00 0.00 0.00 87 1006.2
20260506035017 22 0.0 0.0 0.00 0.00 0.00 86 1006.2
20260506034016 22 0.0 0.0 0.00 0.00 0.00 85 1006.2
20260506033016 22 0.0 0.0 0.00 0.00 0.00 84 1006.1
20260506032017 23 0.0 0.0 0.00 0.00 0.00 84 1006.1
20260506031017 23 0.0 0.0 0.00 0.00 0.00 83 1005.7
20260506030038 23 0.0 0.0 0.00 0.00 0.00 82 1005.6
20260506025016 23 0.0 0.0 0.00 0.00 0.00 80 1005.6
20260506024016 24 0.0 0.0 0.00 0.00 0.00 79 1005.5
20260506023017 24 0.0 0.0 0.00 0.00 0.00 79 1005.4
20260506022016 25 0.0 0.0 0.00 0.00 0.00 78 1005.3
20260506021016 25 0.0 0.0 0.00 0.00 0.00 76 1005.2
20260506020016 25 0.0 0.0 0.00 0.00 0.00 76 1005.1
20260506015018 25 0.0 3.2 0.00 0.00 0.00 75 1004.9
20260506014036 26 0.0 4.8 0.00 0.00 0.00 75 1004.7
20260506013016 26 0.0 8.0 0.00 0.00 0.00 74 1004.6
20260506012016 26 158 1.6 6.4 0.00 0.00 0.00 73 1004.4
20260506011016 27 135 1.6 9.7 0.00 0.00 0.00 71 1004.4
20260506010016 27 113 1.6 8.0 0.00 0.00 0.00 69 1004.2
20260506005016 27 158 1.6 6.4 0.00 0.00 0.00 67 1004.5
20260506004016 28 135 1.6 11.3 0.00 0.00 0.00 66 1004.5
20260506003016 28 180 1.6 8.0 0.00 0.00 0.00 66 1004.4
20260506002016 28 135 1.6 6.4 0.00 0.00 0.00 65 1004.7
20260506001036 28 113 1.6 8.0 0.00 0.00 0.00 65 1004.8
20260506000057 28 135 1.6 6.4 0.00 0.00 0.00 64 1004.8
20260505235016 28 180 1.6 8.0 0.00 0.00 0.00 64 1004.7
20260505234036 29 135 1.6 8.0 0.00 0.00 0.00 63 1004.6
20260505233016 29 158 3.2 11.3 0.00 0.00 0.00 62 1004.6
20260505232016 30 135 3.2 8.0 0.00 0.00 0.00 63 1004.7
20260505231016 30 158 1.6 9.7 0.00 0.00 0.00 62 1004.7
20260505230016 30 135 3.2 11.3 0.00 0.00 0.00 62 1004.6
20260505225015 30 225 3.2 14.5 0.00 0.00 0.00 59 1004.6
20260505224016 30 135 3.2 11.3 0.00 0.00 0.00 59 1004.6
20260505223015 30 135 1.6 11.3 0.00 0.00 0.00 58 1004.7
20260505222036 30 158 1.6 9.7 0.00 0.00 0.00 58 1004.7
20260505221016 30 135 1.6 6.4 0.00 0.00 0.00 59 1004.7
20260505220018 30 135 1.6 11.3 0.00 0.00 0.00 58 1004.8
20260505215018 30 135 3.2 9.7 0.00 0.00 0.00 59 1004.9
20260505214018 30 203 3.2 9.7 0.00 0.00 0.00 58 1005.0
20260505213038 31 203 3.2 9.7 0.00 0.00 0.00 57 1005.2
20260505212018 31 135 3.2 11.3 0.00 0.00 0.00 56 1005.2
20260505211039 31 135 3.2 11.3 0.00 0.00 0.00 56 1005.3
20260505210017 31 203 3.2 16.1 0.00 0.00 0.00 56 1005.7
20260505205017 31 135 3.2 14.5 0.00 0.00 0.00 59 1005.8
20260505204017 31 135 3.2 14.5 0.00 0.00 0.00 57 1005.8
20260505203017 31 135 3.2 14.5 0.00 0.00 0.00 58 1005.7
20260505202017 31 203 4.8 17.7 0.00 0.00 0.00 59 1005.9
20260505201017 31 225 1.6 11.3 0.00 0.00 0.00 57 1006.0
20260505200017 31 135 1.6 14.5 0.00 0.00 0.00 59 1006.1
20260505195017 30 135 3.2 9.7 0.00 0.00 0.00 59 1006.3
20260505194038 30 135 3.2 9.7 0.00 0.00 0.00 59 1006.3
20260505193017 30 158 4.8 19.3 0.00 0.00 0.00 60 1006.3
20260505192017 30 135 4.8 16.1 0.00 0.00 0.00 62 1006.2
20260505191039 29 135 3.2 14.5 0.00 0.00 0.00 61 1006.4
20260505190017 30 135 4.8 11.3 0.00 0.00 0.00 61 1006.5
20260505185017 30 135 3.2 9.7 0.00 0.00 0.00 62 1006.7
20260505184037 29 135 4.8 14.5 0.00 0.00 0.00 64 1006.9
20260505183017 28 225 4.8 16.1 0.00 0.00 0.00 62 1007.0
20260505182018 28 225 4.8 12.9 0.00 0.00 0.00 63 1007.2
20260505181017 28 158 4.8 19.3 0.00 0.00 0.00 65 1007.3
20260505180017 28 135 4.8 14.5 0.00 0.00 0.00 64 1007.2
20260505175017 28 203 3.2 9.7 0.00 0.00 0.00 68 1007.5
20260505174017 27 203 4.8 17.7 0.00 0.00 0.00 70 1007.5
20260505173017 27 248 3.2 16.1 0.00 0.00 0.00 69 1007.5
20260505172017 26 203 4.8 11.3 0.00 0.00 0.00 71 1007.5
20260505171037 26 180 4.8 11.3 0.00 0.00 0.00 74 1007.5
20260505170037 25 293 3.2 11.3 0.00 0.00 0.00 76 1007.4
20260505165016 25 248 3.2 11.3 0.00 0.00 0.00 75 1007.6
20260505164017 25 135 3.2 9.7 0.00 0.00 0.00 77 1007.4
20260505163017 23 225 4.8 11.3 0.00 0.00 0.00 80 1007.2
20260505162016 23 180 4.8 14.5 0.00 0.00 0.00 86 1007.3
20260505161017 22 225 3.2 14.5 0.00 0.00 0.00 89 1007.2
20260505153017 20 135 3.2 9.7 0.00 0.00 0.00 94 1006.7
20260505152016 20 203 3.2 11.3 0.00 0.00 0.00 94 1006.9
20260505151037 20 180 3.2 14.5 0.00 0.00 0.00 94 1007.0